User: anonymous   Login
Location: Lawrence
(38.9720°N, 95.2350°W)
Time: 08:30:20
(UTC-05:00)
Language:

ALOS - Orbit

View from above orbital plane
View from above orbital plane
View from above satellite
View from above satellite

Ground track
Ground track

The orbit data is extracted from the following two-line orbital elements,

1 28931U 06002A   17265.23030918  .00000213  00000-0  50845-4 0  9990
2 28931  97.8381 287.7064 0002262  70.5886 289.5560 14.62394663621649
Epoch (UTC): 22 September 2017 05:31:38
Eccentricity: 0.0002262
inclination: 97.8381°
perigee height: 684 km
apogee height: 687 km
right ascension of ascending node: 287.7064°
argument of perigee: 70.5886°
revolutions per day: 14.62394663
mean anomaly at epoch: 289.5560°
orbit number at epoch: 62164

The dashed part of the orbit path shows where the satellite is in the earth's shadow,  

DLR